Regional Weather Roundup
Issued by NWS

Home | Current Version | Previous Version | Graphics & Text | Print | Product List | Glossary On
Versions: 1 2 3 4 5 6 7 8 9 10 11 12 13 14 15 16 17 18 19 20 21 22 23 24 25 26 27 28 29 30 31 32 33 34 35 36 37 38 39 40 41 42 43 44 45 46 47 48 49 50
000
ASUS43 KMKX 261259
RWRWI

WISCONSIN REGIONAL WEATHER ROUNDUP
NATIONAL WEATHER SERVICE MILWAUKEE/SULLIVAN WI
700 AM CST MON JAN 26 2015

NOTE: "FAIR" INDICATES FEW OR NO CLOUDS BELOW 12,000 FEET WITH NO
SIGNIFICANT WEATHER AND/OR OBSTRUCTIONS TO VISIBILITY.

WIZ001-002-006>008-014>016-023>028-261400-
NORTHWEST WISCONSIN

CITY           SKY/WX    TMP DP  RH WIND       PRES   REMARKS
SUPERIOR ARPT  MIX PCPN  22  20  93 SW5       29.71F WCI  16
ASHLAND        LGT SNOW  20  16  84 S8        29.73F FOG     WCI  10
HAYWARD        LGT SNOW  18  13  80 S8        29.72F VSB 1   WCI   8
SIREN          CLOUDY    23  19  86 S12       29.70F WCI  12
CUMBERLAND     FLURRIES  21  19  93 S9        29.72F WCI  11
RICE LAKE      LGT SNOW  20  17  90 SE8       29.76F WCI  10
CHETEK         LGT SNOW  19  17  90 SE8       29.76F WCI   9
LADYSMITH      LGT SNOW  18  15  88 SE10      29.78F WCI   6
EAU CLAIRE     LGT SNOW  20  17  88 S10       29.78F FOG     WCI   9
MENOMONIE      LGT SNOW  22  20  93 SE8       29.78F VSB 1   WCI  13
NEW RICHMOND   CLOUDY    24  23  96 S13       29.72F WCI  12
OSCEOLA        CLOUDY    25  25 100 SE7       29.75F WCI  17
$$

WIZ003>005-009-010-017-018-261400-
NORTH CENTRAL WISCONSIN

CITY           SKY/WX    TMP DP  RH WIND       PRES   REMARKS
MANITOWISH WTR CLOUDY    13   7  77 S10G16    29.75F WCI  -1
ARBOR VITAE    CLOUDY    17   8  69 S8        29.76F WCI   6
WOODRUFF       CLOUDY    17   8  69 S8        29.76F WCI   6
RHINELANDER    CLOUDY    14   5  67 S8        29.79F WCI   3
EAGLE RIVER    MOCLDY    12   7  79 S6        29.78F WCI   3
LAND O LAKES   FLURRIES  13   9  83 S6        29.78F WCI   4
PHILLIPS       LGT SNOW  15  10  83 S8        29.76F WCI   4
TOMAHAWK       CLOUDY    13   7  75 CALM      29.80F
MEDFORD        FLURRIES  14  10  81 S12       29.80F WCI   1
MERRILL        CLOUDY    15   7  70 S7        29.83F WCI   5
$$

WIZ029-030-035-036-043>047-261400-
CENTRAL WISCONSIN

CITY           SKY/WX    TMP DP  RH WIND       PRES   REMARKS
WAUSAU         CLOUDY    14   7  73 SE6       29.82F WCI   5
MOSINEE        CLOUDY    12   9  85 SE6       29.85F WCI   3
MARSHFIELD     FLURRIES  17  10  74 S9        29.83F WCI   6
STEVENS POINT  CLOUDY    13   8  79 SE3       29.88F
WAUPACA        CLOUDY    16  11  79 E3        29.93S
WAUTOMA        NOT AVBL
WISC RAPIDS    CLOUDY    16   8  71 S6        29.88F WCI   7
CAMP DOUGLAS   LGT SNOW  19  16  86 SE8       29.88S FOG     WCI   9
$$

WIZ011>013-019>022-031-037>040-048>050-261400-
NORTHEAST WISCONSIN

CITY           SKY/WX    TMP DP  RH WIND       PRES   REMARKS
ANTIGO         CLOUDY    12   6  75 S8        29.83F WCI   1
SHAWANO        CLOUDY    15  10  83 CALM      29.93F
OCONTO         MOCLDY    10   9  92 CALM      29.95S
STURGEON BAY   CLOUDY    12   7  79 CALM      29.95F
GREEN BAY      PTCLDY    13   9  84 CALM      29.94F
MANITOWOC      CLOUDY    16  12  86 CALM      29.95F
APPLETON       CLOUDY    16   9  73 VRB3      29.93F
CLINTONVILLE   CLOUDY    14  10  85 CALM      29.92F
OSHKOSH        CLOUDY    16   9  74 CALM      29.93F
$$

WIZ032>034-041-042-053>061-261400-
SOUTHWEST WISCONSIN

CITY           SKY/WX    TMP DP  RH WIND       PRES   REMARKS
LA CROSSE      LGT SNOW  23  17  78 S8        29.86F VSB 1   WCI  14
SPARTA         LGT SNOW  19  16  85 S3        29.88F VSB 3/4
VIROQUA        CLOUDY    19  15  84 S9        29.85S WCI   8
BOSCOBEL       CLOUDY    22  13  68 S3        29.91F
PRAIRIE DU CHI LGT SNOW  22  15  75 E5        29.90F WCI  15
PLATTEVILLE    CLOUDY    19  15  84 SE7       29.90F WCI  10
$$

WIZ056-057-062-063-064-067-068-261400-
SOUTH CENTRAL WISCONSIN

CITY           SKY/WX    TMP DP  RH WIND       PRES   REMARKS
REEDSBURG      CLOUDY    18  12  78 CALM      29.90F
BARABOO/DELLS  CLOUDY    17  13  81 CALM      29.90S
LONE ROCK      NOT AVBL
MINERAL POINT  CLOUDY    19  14  79 SE6       29.89F WCI  11
MADISON        MOCLDY    17  11  77 S5        29.93F WCI  10
MIDDLETON      CLOUDY    19  12  76 S3        29.92F
WATERTOWN      CLOUDY    13  11  88 CALM      29.93S
MONROE         CLOUDY    18  14  86 SW3       29.93S
JANESVILLE     CLOUDY    16  12  86 CALM      29.95R
$$

WIZ051-052-058>065-066-070>072-261400-
SOUTHEAST WISCONSIN

CITY           SKY/WX    TMP DP  RH WIND       PRES   REMARKS
MILWAUKEE      MOCLDY    18  11  74 CALM      29.95S
WAUKESHA       PTCLDY    10   9  92 CALM      29.95S
MILWAUKEE/TIMM MOCLDY    16  10  79 CALM      29.96S
RACINE         CLOUDY    17  12  80 W3        29.97S
BURLINGTON     PTCLDY    10   8  91 CALM      29.95S
KENOSHA        CLOUDY    14  11  87 CALM      29.95S
FOND DU LAC    MOCLDY    14   9  80 CALM      29.93F
SHEBOYGAN      CLOUDY    15  11  83 CALM      29.94F
WEST BEND      CLOUDY    14  10  85 CALM      29.95R
JUNEAU         CLOUDY    14  10  83 CALM      29.94S
$$

LSZ147-162-261400-
LAKE SUPERIOR

STATION/POSITION TIME  TEMP    WIND        PRES    WAVE
                       AIR SEA DIR/SP/G            HT/PER
                 (UTC) (F)     (DEG/KT/KT) (MB)    (FT/S)
DEVILS ISLAND    1200   20     170/ 15/ 21 1008.1F
PORT WING        1240   21     170/ 10/ 17 1006.1F
SAXON HARBOR     1200   20     180/  4/ 13 1007.8F
$$

LMZ867-665-643>646-261400-
LAKE MICHIGAN

STATION/POSITION TIME  TEMP    WIND        PRES    WAVE
                       AIR SEA DIR/SP/G            HT/PER
                 (UTC) (F)     (DEG/KT/KT) (MB)    (FT/S)
NORTHPORT PIER   1215   14      CALM  /  1 1014.6F
SISTER BAY       1213   12        CALM       N/A
KEWAUNEE LAKESHO 1200   13     280/  1/  3 1013.6F
SHEBOYGAN LAKESH 1200   20     230/  3/  3 1015.6F
PORT WASHINGTON  1240   18        CALM     1015.2F
MILWAUKEE LAKESH 1200   20     310/  3/  4   N/A
KENOSHA   LAKESH 1200   19     270/  4/  5 1014.6F
$$

TC  - TEMPERATURE IN CELSIUS
VSB - VISIBILITY IN STATUTE MILES
WCI - WIND CHILL INDEX
HX  - HEAT INDEX



USA.gov is the U.S. government's official web portal to all federal, state and local government web resources and services.